CYRJ

Roberval Airport

ICAO Code CYRJ
IATA Code YRJ
Name Roberval Airport
Location Roberval, Quebec, CA
Elevation 586 Feet / 178.6 Meters
Latitude 48.52000000
Longitude -72.26583333
METAR CYRJ 260500Z 30005KT 25SM OVC120 03/02 A3009 RMK AS8 SLP200
Extra information Display Charts and CFS
Display NOTAMS
Runway Length Width Surface Elevation
16 5000 ft 150 ft ASP 586 ft
34 5000 ft 150 ft ASP 560 ft